Other Surface Observations
Issued by NWS

Home | Current Version | Previous Version | Text Only | Print | Product List | Glossary On
Versions: 1 2 3 4 5 6 7 8 9 10 11 12 13 14 15 16 17 18 19 20 21 22 23 24 25 26 27 28 29 30 31 32 33 34 35 36 37 38 39 40 41 42 43 44 45 46 47 48 49 50
000
SXUS52 KTAE 301518
OSOTAE
OSOTAE
North Florida/South Alabama/Southwest Georgia Weather Roundup
National Weather Service Tallahassee Florida
1100 AM EDT SAT APR 30 2016

Note: "fair" indicates few or no clouds below 12,000 feet with no
significant weather and/or obstructions to visibility.

!FLZ017-115-028-034-025-301600
...North Florida...

CITY           SKY/WX    TMP DP  RH WIND       PRES   REMARKS
TALLAHASSEE    CLOUDY    83  68  60 S8        29.96R
APALACHICOLA   CLOUDY    79  69  71 SE9       29.97R
PERRY          CLOUDY    83  72  69 SE6       29.98R
CROSS CITY       N/A     82  70  66 E3        29.97R
JACKSONVILLE   PTSUNNY   83  68  60 SE9       29.99S
$$

!FLZ112-006-005-002-011-301600
...Florida Panhandle...

CITY           SKY/WX    TMP DP  RH WIND       PRES   REMARKS
MARIANNA       MOSUNNY   79  70  74 VRB7      29.96R
BONIFAY        NOT AVBL
PANAMA CITY NW FAIR      78  69  73 E9        29.96R
TYNDALL AFB    PTSUNNY   76  75  96 E8        29.97R
TYND DRONE APT FAIR      78  71  78 SE9       29.97R
DE FUNIAK SPR    N/A     76  67  72 SE9       29.97R
EGLIN AFB      PTSUNNY   77  63  61 E12       29.94R
DESTIN         CLOUDY    79  74  84 SE14      29.95S
HURLBURT       CLOUDY    76  71  82 E9        29.93R
CRESTVIEW      CLOUDY    79  69  71 SE7       29.96S
PENSACOLA      CLOUDY    78  72  81 SE14      29.94R
$$

!ALZ063-066-301600
...South Alabama...

CITY           SKY/WX    TMP DP  RH WIND       PRES   REMARKS
DOTHAN         CLOUDY    82  63  52 S13       29.99S
OZARK CAIRNS   CLOUDY    81  68  64 SE7       29.96R
FT RUCKER HELI MOSUNNY   81  66  60 VRB5      29.95R
RUCKER HELI 3  FAIR      81  65  58 S10       29.97R
RUCKER HELI 2  NOT AVBL
FLORALA APT    CLOUDY    78  65  63 SE8       29.97R
ANDALUSIA      MOSUNNY   83  66  56 SE6       29.95R
TROY           MOSUNNY   81  67  62 S3        29.96R
EUFALA         FAIR      83  66  56 VRB6      29.95R
MOBILE         CLOUDY    78  74  87 SE18      29.91F
$$

!GAZ120>161-301600
...Southwest and South Central Georgia...

CITY           SKY/WX    TMP DP  RH WIND       PRES   REMARKS
THOMASVILLE    FAIR      82  70  65 S8        29.98R
BAINBRIDGE     CLOUDY    81  68  65 S8        29.97R
MOODY AFB      MOSUNNY   84  69  59 SE14      29.97R
VALDOSTA       SUNNY     84  69  60 S10       29.98R
MOULTRIE       MOSUNNY   82  70  65 SE6       29.97S
BLAKELY        MOSUNNY   82  72  69 CALM      29.97R
ALBANY         CLOUDY    84  69  60 S12       29.98R
TIFTON         FAIR      83  70  66 S8        29.98R
FITZGERALD     FAIR      84  71  63 S6        30.01R
CORDELE        FAIR      87  70  57 SE8       29.99R HX  91
AMERICUS       FAIR      81  64  57 S6        29.99S
HOMERVILLE     FAIR      84  70  61 SE6       29.98S
$$

!GMZ750-755-770-775-301600
...Coastal and Buoy Obs...

STATION/POSITION TIME  TEMP    WIND        PRES    VSBY  WAVE
                       AIR SEA DIR/SP/G                  HT/PER
                 (UTC) (F)     (DEG/KT/KT) (MB)    (MI)  (FT/S)
KEATON BEACH     1500   78     180/  7/  8 1014.7R
CEDAR KEY        1500   77     140/  9/ 11 1015.1S
C TOWER          1500   75     130/  8/  9 1015.4R
APALACHICOLA BUO 1450   76 75  130/ 12/ 12 1013.3          2/ 6
PANAMA CITY BUOY 1450   79 78  140/ 17/ 19 1013.1R         4/ 4
MOBILE BUOY      1500   76 74  130/ 14/ 16 1011.9R
ORANGE BCH AL BU 1450   75 74  110/ 10/ 12 1012.4          3/ 6
$$




USA.gov is the U.S. government's official web portal to all federal, state and local government web resources and services.